Hourly Data Report for July 10, 2021

CAMBRIDGE BAY A
NUNAVUT
Current Station Operator: NAVCAN

69°06'29.000" N
105°08'14.000" W
31.10 m
2400601
71925
YCB

Download Data

Hourly Data (July 2021)
Hourly Data Report for July 10, 2021
TIME
LST
Temp Definition
°C
Dew Point Definition
°C
Rel Hum Definition
%
Precip. Amount Definition
mm

Wind Dir Definition
10's deg

Wind Spd Definition
km/h
Visibility Definition
km
Stn Press Definition
kPa
Hmdx Definition


Wind Chill Definition


Weather Definition


00:00 5.8 4.5 91   36 2 24.1 100.64     LegendNANA
01:00 6.6 5.3 91   15 4 24.1 100.64     LegendNANA
02:00 5.9 5.0 94   14 4 24.1 100.53     Mostly Cloudy
03:00 6.7 6.0 95   9 12 24.1 100.44     LegendNANA
04:00 6.5 5.8 95   9 13 24.1 100.35     Rain
05:00 6.9 6.3 96   11 10 24.1 100.28     Rain
06:00 8.2 7.5 96   13 27 24.1 100.18     LegendNANA
07:00 8.8 7.0 89   12 17 24.1 100.09     LegendNANA
08:00 10.0 7.5 84   16 25 24.1 100.04     Mostly Cloudy
09:00 11.1 8.3 83   17 23 24.1 99.99     LegendNANA
10:00 10.9 7.6 80   24 19 24.1 100.01     LegendNANA
11:00 10.1 6.8 80   24 22 24.1 99.96     Mainly Clear
12:00 10.4 6.6 77   24 31 24.1 99.91     LegendNANA
13:00 10.6 7.1 79   25 32 24.1 99.87     LegendNANA
14:00 9.8 6.7 81   25 42 24.1 99.81     Mainly Clear
15:00 8.9 6.1 83   25 40 24.1 99.84     LegendNANA
16:00 6.8 4.0 82   28 32 24.1 99.86     LegendNANA
17:00 5.1 3.0 86   26 32 24.1 99.90     Mostly Cloudy
18:00 5.8 3.5 85   26 22 24.1 99.92     LegendNANA
19:00 5.9 3.9 87   26 29 24.1 99.95     LegendNANA
20:00 6.1 4.4 89   27 26 24.1 99.98     Mostly Cloudy
21:00 8.0 6.0 87   30 22 24.1 100.03     LegendNANA
22:00 8.7 7.1 89   30 17 24.1 100.12     LegendNANA
23:00 8.3 6.6 89   30 21 24.1 100.17     Mostly Cloudy

Notes on Data Quality.

Legend

  • E = Estimated
  • M = Missing
  • NA = Not Available*
  • [empty] = Indicates an unobserved value
Date modified: